Wind_Speed
43 43 43 43 44 44 46 47 48 48 49 50 51 53 54 55 56 57 57 57 58 59 60 60 60 60 60 60 60 61 62 63 63 63 64 64 64 64 64 64 64 63 62
43 43 44 45 46 47 49 50 51 52 54 56 57 58 59 59 60 60 61 61 61 62 62 61 61 61 60 61 61 62 62 63 62 61 61 61 62 62 61 60 60 59 58
45 45 47 48 49 50 52 54 56 57 59 60 61 62 62 62 63 63 63 63 62 62 62 61 61 60 61 61 61 61 61 60 60 58 58 58 58 57 56 55 55 53 51
47 49 50 51 53 54 56 57 58 60 61 62 63 62 63 64 63 62 61 61 60 59 59 59 59 59 59 60 59 59 58 58 56 55 54 53 52 52 51 48 45 44 43
48 50 52 53 55 56 57 58 58 59 59 58 58 57 57 58 58 58 58 58 58 57 58 58 58 58 58 58 57 56 54 53 52 50 49 47 47 46 43 40 38 37 38
44 47 48 50 51 51 52 53 53 53 53 53 53 53 54 54 55 55 55 55 55 56 56 56 57 57 56 54 52 51 49 48 46 44 42 41 39 36 34 34 34 33 32
42 44 44 43 43 45 46 47 47 48 49 50 50 51 52 52 52 53 53 54 54 54 54 53 52 51 49 48 46 45 44 41 39 37 35 32 30 29 29 30 30 31 31
40 41 42 42 43 44 44 44 45 46 47 48 49 50 50 51 52 51 51 51 50 49 48 47 46 44 43 41 40 38 37 35 33 30 27 25 24 25 26 26 26 27 28
37 38 39 41 42 43 43 44 45 45 46 46 47 47 47 47 47 47 46 45 45 44 43 41 40 38 36 34 32 30 29 27 25 23 21 20 20 21 22 23 24 25 26
35 36 37 38 39 40 41 41 42 42 43 43 43 43 43 42 42 42 41 40 39 38 36 33 32 30 28 26 24 22 21 20 18 17 17 17 18 20 21 22 23 23 24
32 33 34 35 36 37 37 37 38 39 39 39 38 38 37 37 37 35 34 32 30 28 26 24 23 21 19 18 17 15 14 13 13 13 14 15 17 18 19 20 21 22 23
29 30 31 32 33 34 34 34 35 35 35 33 33 32 32 31 30 28 26 24 22 20 18 16 14 13 11 11 9 8 8 9 9 10 12 13 15 17 18 19 20 22 22
26 27 28 29 30 30 30 31 31 31 29 28 27 27 26 25 23 22 20 18 16 13 10 8 7 6 6 5 4 5 6 7 8 9 11 13 14 16 17 19 20 21 22
25 25 26 27 27 27 26 26 26 25 23 23 22 22 21 20 19 17 15 12 9 6 4 3 2 2 2 3 4 5 5 6 8 9 11 13 15 16 18 19 21 22 22
22 22 23 23 22 22 22 21 20 20 20 19 19 19 17 15 13 10 7 5 2 1 2 3 4 5 6 6 6 6 7 8 9 11 12 14 16 17 19 20 20 21 22
18 18 19 19 18 17 17 17 17 17 17 16 16 15 13 11 8 6 4 3 4 5 6 7 8 8 8 8 8 9 9 10 11 12 14 15 17 18 19 21 21 22 23
15 15 16 16 15 15 15 15 15 15 15 14 13 12 11 10 8 7 7 7 8 9 10 10 10 10 10 10 10 10 10 11 12 13 15 16 18 19 20 21 22 22 22
13 13 13 14 14 13 13 14 14 14 13 13 12 12 11 11 10 9 9 10 11 11 11 11 11 11 10 10 11 11 11 12 14 15 16 17 19 20 21 22 23 23 23
12 11 12 12 13 12 12 13 13 12 12 12 12 12 11 11 11 11 11 11 11 11 11 11 11 10 10 10 11 11 12 14 15 16 17 18 19 21 22 23 24 24 24
10 10 10 11 11 11 11 12 12 12 12 12 12 12 11 11 11 11 11 11 11 11 11 11 10 10 10 10 11 12 13 14 15 17 17 19 20 21 23 23 24 24 24
9 9 9 9 10 10 11 11 11 11 11 11 11 11 11 11 11 11 11 11 11 11 10 10 10 10 10 10 11 12 13 15 16 17 18 19 20 22 23 24 25 25 24
8 8 8 8 9 9 10 10 11 11 11 11 11 11 10 10 11 11 11 11 10 10 10 10 10 10 10 10 11 12 13 14 16 17 18 19 20 21 22 24 25 25 25
7 7 7 7 7 8 9 9 10 10 10 10 10 10 9 10 10 10 10 10 10 10 9 9 9 9 10 10 11 12 13 15 16 17 18 19 20 21 22 23 24 24 25
8 7 6 6 6 7 8 8 8 9 9 9 9 9 9 9 9 9 9 9 9 9 9 9 9 9 10 11 11 12 13 15 16 17 18 19 20 21 22 22 23 23 24
8 7 6 6 6 6 7 7 7 8 8 8 8 8 8 8 8 9 9 9 9 9 9 9 9 9 10 11 11 12 13 14 15 16 17 19 20 21 21 22 22 23 23
9 8 7 6 6 5 6 6 7 7 8 8 8 8 8 8 8 8 8 8 8 8 8 9 9 10 10 10 11 12 13 14 15 16 17 18 19 20 21 21 22 22 22
Wind_Direction
275 275 276 277 278 279 280 281 282 284 285 286 287 288 288 288 288 288 288 288 288 288 288 289 290 290 290 289 289 289 289 288 288 288 289 289 289 290 291 292 292 292 291
271 273 275 276 278 279 280 281 282 284 285 286 287 287 287 287 288 288 288 288 288 288 289 289 289 290 289 289 289 289 289 289 290 290 290 291 292 292 292 293 293 293 293
269 271 273 275 276 278 279 280 282 283 284 285 285 285 286 287 287 287 287 287 288 289 289 289 289 289 289 289 289 289 290 291 292 292 292 293 293 293 294 294 295 295 295
269 271 272 274 276 277 278 279 280 282 283 284 284 284 284 285 286 286 287 287 288 289 289 289 288 288 288 288 289 289 290 291 292 293 293 294 294 295 296 297 297 298 299
270 272 273 275 276 276 277 278 280 280 282 283 284 285 286 286 286 286 287 288 289 289 288 288 288 288 288 288 288 289 290 291 292 293 294 295 296 297 299 300 301 302 302
273 274 275 276 276 276 279 280 281 282 284 286 286 287 288 288 288 288 288 288 288 288 287 287 287 287 288 288 289 290 291 292 292 293 295 297 298 300 302 304 306 307 306
277 278 279 281 283 284 287 288 288 289 291 290 289 289 289 289 288 287 287 287 287 287 288 288 288 288 288 289 290 290 291 291 291 294 296 298 301 304 307 310 312 313 314
286 285 286 286 288 289 290 291 291 291 291 290 289 289 289 288 288 287 288 287 287 287 288 288 288 289 289 290 290 290 291 292 294 297 301 304 306 311 315 318 320 321 321
288 288 288 290 292 293 294 294 294 292 291 290 290 289 289 289 288 288 288 288 288 288 288 287 287 288 288 288 289 290 291 294 297 302 306 310 315 320 324 327 328 329 329
292 293 295 295 295 296 296 296 295 294 293 292 290 290 290 289 289 290 290 290 290 290 288 287 287 287 287 287 288 290 293 298 304 310 316 321 326 330 332 334 336 336 337
297 297 297 298 298 299 299 299 298 297 295 294 293 292 292 292 293 293 293 294 294 292 289 288 287 288 288 289 291 294 299 306 313 319 325 330 334 336 338 340 343 344 344
301 301 301 302 302 302 301 301 301 300 299 297 297 296 296 296 295 295 295 296 295 294 291 289 289 290 293 296 299 305 312 318 324 331 337 341 343 344 345 346 347 348 349
306 306 306 307 307 306 305 305 305 305 304 303 303 302 301 299 298 298 297 296 295 294 295 295 296 299 304 311 321 333 337 341 347 351 352 352 352 352 352 352 353 353 354
310 311 311 312 312 311 311 311 311 312 313 314 314 312 309 305 303 301 300 299 296 297 305 318 332 349 10 23 23 19 15 14 12 7 4 2 0 359 358 357 357 357 358
316 317 318 320 321 320 320 321 322 322 322 324 325 325 324 322 318 315 314 315 324 14 58 71 75 79 78 67 60 53 43 35 26 18 12 9 6 4 3 2 1 1 2
324 326 328 329 329 329 330 331 332 333 335 336 338 340 345 350 358 9 30 61 78 84 87 89 89 85 80 74 69 59 48 38 30 24 18 13 10 7 7 6 6 6 6
330 333 336 340 341 342 342 343 345 347 351 355 358 3 10 20 33 52 74 85 89 93 94 92 89 85 80 75 66 57 47 38 30 24 20 16 13 10 9 9 9 9 9
335 339 343 347 349 349 351 353 355 360 6 11 16 24 34 44 56 70 82 89 93 93 92 90 89 86 80 71 62 54 45 37 28 22 18 16 14 12 11 11 11 11 11
338 343 347 352 354 356 359 3 6 11 17 23 28 35 43 52 61 73 84 90 92 92 91 91 89 84 74 65 56 48 40 33 26 21 17 16 15 13 12 12 11 12 13
340 344 351 356 359 4 6 10 13 18 23 28 34 41 49 58 67 76 83 88 91 92 92 91 85 76 68 59 50 43 36 30 25 22 20 18 17 15 15 15 15 15 15
344 348 355 1 6 11 13 17 21 26 31 36 41 47 54 61 69 76 82 86 89 90 90 86 78 70 63 53 45 38 32 28 24 22 20 20 19 19 19 20 20 21 21
351 353 358 2 8 14 19 22 26 30 36 40 45 50 55 62 71 80 83 86 87 87 85 80 72 65 57 48 41 35 31 28 25 23 21 21 22 22 23 24 25 25 25
356 354 356 1 9 16 21 25 29 33 37 41 46 51 57 66 74 81 83 85 86 84 81 76 68 59 51 44 39 36 33 30 28 26 25 27 27 26 26 26 27 28 29
7 5 3 5 11 18 21 26 31 36 40 43 48 54 63 71 77 82 84 84 84 82 78 72 63 55 49 45 42 39 36 34 32 32 32 31 29 28 27 27 28 29 31
13 13 12 13 16 21 25 31 37 40 42 45 51 59 68 76 80 83 84 84 83 80 76 69 62 56 51 47 44 42 39 35 34 33 31 30 28 28 27 28 29 30 32
21 25 29 28 29 33 38 43 46 47 47 50 56 65 73 78 81 83 85 84 82 79 75 68 62 58 53 50 47 44 38 34 32 31 29 28 27 27 26 27 29 31 33
Height
5798 5797 5795 5794 5792 5790 5788 5786 5783 5780 5778 5775 5773 5770 5767 5764 5760 5757 5754 5750 5746 5742 5738 5734 5730 5726 5721 5716 5711 5706 5702 5697 5693 5687 5679 5672 5666 5660 5653 5647 5640 5634 5628
5788 5787 5786 5784 5782 5779 5777 5774 5772 5769 5766 5763 5760 5757 5753 5749 5746 5742 5739 5735 5731 5727 5723 5719 5714 5710 5705 5700 5695 5690 5685 5680 5676 5672 5664 5657 5650 5644 5638 5631 5624 5618 5612
5778 5777 5775 5773 5771 5769 5766 5763 5760 5757 5754 5750 5747 5743 5739 5735 5731 5727 5723 5719 5715 5711 5707 5703 5698 5693 5689 5684 5679 5674 5669 5664 5660 5656 5650 5643 5636 5629 5624 5617 5611 5604 5597
5768 5766 5764 5762 5759 5757 5754 5751 5748 5744 5741 5737 5732 5728 5724 5720 5716 5712 5708 5703 5699 5695 5690 5686 5682 5677 5672 5668 5663 5659 5654 5650 5645 5640 5635 5629 5623 5616 5611 5605 5599 5592 5585
5757 5755 5753 5750 5747 5744 5741 5738 5734 5731 5727 5723 5718 5713 5709 5705 5701 5697 5692 5688 5683 5679 5674 5670 5666 5661 5656 5652 5648 5644 5640 5636 5632 5627 5622 5617 5611 5605 5599 5594 5588 5582 5575
5746 5743 5740 5737 5734 5731 5727 5724 5720 5716 5712 5708 5704 5699 5695 5690 5686 5681 5677 5672 5667 5663 5658 5654 5650 5645 5641 5637 5633 5630 5627 5624 5621 5616 5612 5607 5602 5596 5591 5585 5579 5574 5568
5734 5731 5728 5724 5721 5717 5714 5710 5706 5702 5698 5694 5689 5684 5680 5675 5670 5665 5661 5656 5652 5647 5643 5639 5634 5630 5627 5623 5620 5617 5615 5612 5610 5607 5603 5598 5594 5589 5584 5579 5572 5566 5560
5723 5720 5716 5713 5709 5705 5701 5698 5693 5689 5684 5679 5674 5669 5665 5660 5655 5650 5645 5641 5636 5632 5628 5624 5621 5618 5615 5612 5609 5607 5605 5603 5600 5598 5595 5591 5587 5583 5578 5572 5566 5560 5553
5712 5709 5706 5702 5697 5693 5689 5685 5680 5675 5670 5665 5660 5655 5650 5645 5640 5636 5631 5626 5622 5618 5615 5612 5609 5606 5604 5602 5601 5599 5597 5596 5594 5591 5589 5585 5582 5577 5572 5567 5561 5555 5549
5702 5698 5695 5690 5686 5682 5677 5672 5667 5662 5657 5652 5647 5642 5637 5632 5627 5623 5619 5614 5610 5606 5603 5601 5599 5598 5596 5595 5594 5593 5592 5590 5588 5586 5584 5581 5577 5573 5568 5563 5558 5552 5545
5692 5688 5684 5680 5675 5671 5666 5661 5656 5651 5646 5640 5635 5630 5625 5620 5616 5612 5608 5604 5601 5597 5595 5594 5593 5591 5591 5590 5590 5589 5588 5587 5585 5583 5581 5578 5574 5570 5566 5560 5555 5549 5543
5683 5679 5675 5670 5666 5661 5656 5651 5646 5641 5635 5630 5625 5620 5615 5611 5607 5603 5600 5597 5594 5592 5590 5589 5588 5588 5588 5587 5587 5586 5586 5585 5584 5582 5579 5576 5572 5568 5564 5559 5553 5547 5541
5675 5671 5667 5662 5657 5652 5647 5642 5637 5632 5627 5622 5617 5612 5607 5603 5599 5596 5594 5592 5590 5588 5587 5587 5586 5586 5586 5586 5586 5585 5585 5584 5582 5580 5578 5575 5571 5567 5562 5557 5551 5546 5540
5668 5664 5659 5654 5649 5644 5639 5635 5630 5625 5620 5615 5610 5606 5601 5597 5594 5591 5589 5588 5587 5586 5586 5586 5586 5586 5586 5586 5586 5585 5585 5583 5582 5580 5577 5574 5570 5566 5561 5556 5551 5545 5539
5661 5657 5653 5648 5643 5638 5634 5629 5625 5621 5616 5612 5607 5602 5598 5594 5590 5588 5587 5586 5586 5586 5586 5586 5586 5587 5587 5587 5587 5586 5585 5584 5582 5580 5577 5574 5570 5566 5561 5556 5551 5545 5539
5656 5652 5648 5643 5639 5635 5631 5627 5622 5618 5614 5609 5605 5601 5596 5593 5590 5588 5587 5587 5587 5587 5588 5588 5588 5589 5589 5589 5588 5588 5587 5585 5583 5581 5578 5574 5570 5566 5561 5556 5551 5545 5540
5652 5648 5645 5641 5637 5634 5629 5625 5621 5617 5613 5609 5605 5601 5597 5594 5592 5590 5590 5590 5590 5590 5590 5591 5591 5591 5591 5591 5590 5589 5588 5587 5584 5582 5578 5575 5571 5567 5562 5557 5552 5546 5541
5649 5646 5643 5640 5636 5633 5629 5625 5621 5617 5613 5610 5606 5603 5600 5597 5595 5594 5593 5593 5593 5593 5594 5594 5594 5594 5594 5594 5593 5592 5590 5588 5586 5583 5580 5576 5572 5568 5563 5558 5553 5548 5543
5647 5645 5642 5639 5636 5632 5629 5625 5622 5618 5615 5611 5608 5606 5603 5601 5599 5598 5597 5597 5597 5597 5597 5597 5598 5598 5597 5597 5596 5594 5593 5590 5588 5585 5581 5578 5574 5569 5565 5560 5555 5549 5544
5646 5643 5641 5639 5636 5633 5629 5626 5623 5620 5617 5614 5611 5609 5606 5605 5603 5602 5602 5601 5601 5601 5601 5601 5601 5601 5600 5600 5598 5597 5595 5592 5590 5587 5583 5580 5575 5571 5567 5562 5557 5551 5546
5644 5643 5641 5638 5636 5633 5630 5627 5625 5622 5619 5617 5614 5612 5610 5608 5607 5606 5606 5605 5605 5605 5605 5605 5605 5604 5604 5603 5601 5599 5597 5595 5592 5589 5586 5582 5578 5574 5569 5564 5559 5554 5549
5644 5642 5640 5638 5636 5634 5631 5629 5626 5624 5621 5619 5617 5615 5614 5612 5611 5610 5610 5609 5609 5609 5609 5609 5608 5608 5607 5605 5604 5602 5599 5597 5594 5591 5588 5584 5580 5576 5572 5567 5562 5557 5552
5643 5641 5640 5638 5637 5635 5633 5630 5628 5626 5624 5622 5620 5618 5617 5616 5615 5614 5614 5613 5613 5613 5613 5612 5611 5610 5609 5608 5606 5604 5602 5599 5597 5594 5590 5587 5583 5579 5575 5570 5566 5561 5557
5643 5641 5640 5638 5637 5635 5634 5632 5630 5628 5626 5624 5623 5621 5620 5619 5618 5618 5617 5617 5616 5616 5616 5615 5614 5613 5612 5610 5609 5607 5604 5602 5599 5596 5593 5590 5586 5582 5578 5574 5570 5565 5561
5643 5641 5639 5638 5637 5636 5634 5633 5632 5630 5628 5627 5625 5624 5623 5622 5622 5621 5621 5620 5620 5619 5619 5618 5617 5616 5615 5613 5611 5609 5607 5605 5602 5599 5596 5593 5589 5585 5581 5577 5573 5569 5565
5643 5641 5640 5639 5638 5637 5636 5634 5633 5632 5631 5629 5628 5627 5626 5625 5625 5624 5624 5623 5623 5622 5622 5621 5620 5619 5617 5616 5614 5612 5610 5608 5605 5602 5599 5596 5592 5589 5585 5581 5577 5573 5569